Overview Statistics Trail Chart Weather Telemetry Raw packets
 

This is the latest recevied weather packets stored in our database for station/object IU5GBO-13. If no packets are shown the sender has not sent any weather packets the latest 10 day(s).

<< 36 37 38 39 40 41 42 >>
Time Temp. Humidity Pressure Rain* Wind** Luminosity Snow
1777516573 11.67° C 62% 1018 hPa - - - -
1777515973 11.11° C 65% 1018 hPa - - - -
1777515372 10.56° C 65% 1017.9 hPa - - - -
1777514772 10.56° C 65% 1017.8 hPa - - - -
1777514172 11.11° C 64% 1017.6 hPa - - - -
1777513572 11.67° C 62% 1017.6 hPa - - - -
1777512972 11.67° C 62% 1017.6 hPa - - - -
1777512373 11.67° C 62% 1017.6 hPa - - - -
1777511772 11.67° C 63% 1017.4 hPa - - - -
1777511172 11.11° C 64% 1017.6 hPa - - - -
1777510573 11.67° C 63% 1017.6 hPa - - - -
1777509972 11.11° C 64% 1017.7 hPa - - - -
1777509372 11.11° C 65% 1017.8 hPa - - - -
1777508772 11.67° C 64% 1017.7 hPa - - - -
1777508172 11.67° C 64% 1017.6 hPa - - - -
1777507573 11.67° C 65% 1017.7 hPa - - - -
1777506972 11.11° C 66% 1017.7 hPa - - - -
1777506372 11.67° C 66% 1017.8 hPa - - - -
1777505772 11.67° C 65% 1017.8 hPa - - - -
1777505173 11.67° C 65% 1017.8 hPa - - - -
1777504572 12.22° C 64% 1017.8 hPa - - - -
1777503973 12.22° C 64% 1017.8 hPa - - - -
1777503373 12.22° C 65% 1017.8 hPa - - - -
1777502773 12.22° C 64% 1017.7 hPa - - - -
1777502172 12.78° C 64% 1017.7 hPa - - - -

* Rain since midnight (hover to see other rain measurements)
** Current wind speed in m/s (hover to see current wind gust speed)